Theta_e
305 306 306 306 306 306 306 306 307 307 308 308 309 309 309 310 311 311 311 312 312 311 310 310 311 313 313 314 314 314 313 313 313 313 313 313 313 313 312 312 312 312 312 312 313 311 308 306 306 305 305 305 305 305 305 305 305 305 305 304 303 303 303 303 303 302 301 302 302 302 302 302 302 302 301 302 302 302 302 302 301 301 301 300 300 300 300
305 305 305 305 305 305 305 306 307 307 307 308 308 309 309 310 310 311 311 312 312 311 310 310 311 312 313 313 313 313 314 314 313 313 313 313 313 312 312 312 312 312 312 312 311 309 307 306 306 305 305 305 304 304 304 305 305 305 304 303 303 303 303 303 302 301 301 302 302 302 302 302 302 301 301 301 301 301 302 301 301 301 301 300 300 300 299
305 305 305 305 305 305 305 305 306 306 307 307 308 308 309 310 311 311 312 312 312 311 311 312 312 312 313 312 312 313 313 313 312 313 313 313 313 312 312 312 312 312 311 311 309 309 308 307 305 305 305 305 304 304 305 305 305 304 303 303 303 304 303 302 301 301 301 302 303 302 302 301 301 301 301 301 301 301 301 301 301 301 300 300 300 299 299
304 305 305 304 304 305 305 306 307 307 307 308 308 308 309 310 312 312 312 312 311 311 311 312 312 312 312 312 312 313 313 312 312 313 313 313 313 312 312 312 312 311 310 310 309 309 309 308 306 305 305 304 304 305 305 305 304 304 303 304 303 303 302 302 301 301 302 302 302 302 301 301 301 301 301 301 301 301 300 300 300 300 300 299 299 299 299
304 304 304 304 305 305 305 306 307 308 308 308 308 308 309 310 310 310 309 309 309 310 311 311 311 311 312 312 313 313 313 312 313 313 312 312 313 312 312 311 311 310 310 309 310 309 309 308 306 306 305 304 305 305 305 304 304 304 304 303 303 302 302 301 301 302 302 302 302 301 301 301 300 300 300 300 300 300 299 299 299 299 299 299 299 298 298
303 304 305 305 305 304 305 305 306 307 308 308 308 308 308 308 308 308 309 309 309 310 310 311 311 311 311 312 313 313 313 314 314 313 312 313 312 312 311 311 310 310 310 310 311 309 308 307 307 306 305 304 305 305 305 304 304 304 303 303 303 302 301 301 301 302 302 302 301 301 301 300 300 299 299 299 299 299 298 298 298 298 298 298 298 298 298
303 303 304 304 303 305 305 306 307 307 307 307 308 308 307 307 307 308 308 308 309 310 310 310 312 312 311 312 312 311 312 313 313 312 312 312 311 311 311 310 310 311 311 312 311 310 309 308 308 308 306 304 305 305 304 304 304 303 303 303 303 302 301 301 301 302 302 301 300 300 300 300 299 299 299 299 298 298 297 297 297 297 297 297 297 297 297
303 303 303 303 304 305 304 306 307 307 307 307 307 307 307 307 307 308 307 308 308 309 310 310 310 311 312 312 311 311 312 312 312 312 311 311 311 311 311 311 312 312 312 312 311 310 310 309 308 307 305 304 305 304 304 304 304 303 303 303 302 301 301 301 301 302 301 301 300 300 300 299 299 299 299 298 298 297 297 296 296 296 296 296 296 296 297
303 302 302 303 304 303 303 306 308 308 308 308 307 307 307 307 308 308 308 308 308 309 310 310 311 312 312 311 311 311 311 311 311 311 311 311 311 311 312 312 312 311 311 310 309 308 307 308 308 307 305 304 304 304 303 304 303 303 303 302 302 301 301 301 301 301 301 300 300 300 299 299 299 299 298 298 297 297 296 296 296 296 295 295 295 296 296
303 303 303 304 303 302 303 306 308 308 309 308 307 306 307 307 308 309 308 308 308 309 309 310 310 311 311 310 310 311 310 310 311 312 312 312 311 311 312 311 310 310 310 309 307 306 307 308 307 306 304 304 304 303 303 303 303 303 303 302 302 301 300 301 301 301 300 300 299 299 299 299 298 298 298 297 297 297 297 296 296 295 295 295 295 295 295
302 302 303 303 302 302 304 307 308 308 308 308 307 305 305 306 309 309 308 307 308 309 309 310 310 311 310 309 311 311 310 311 312 312 311 311 311 311 310 310 309 310 309 308 306 306 307 307 306 305 304 304 304 303 303 303 303 303 303 302 301 299 299 300 300 301 300 300 299 299 299 298 298 297 297 297 297 297 296 296 296 295 295 294 294 294 294
302 302 302 302 302 303 305 307 307 307 307 308 306 304 304 306 308 308 308 308 308 309 309 309 310 310 309 310 311 311 310 310 311 312 311 311 310 310 310 309 309 308 307 306 306 306 306 306 305 304 303 303 303 303 303 303 303 303 302 301 299 298 299 300 300 300 299 299 299 299 298 298 297 297 297 297 296 296 296 295 295 295 294 294 294 294 294
302 302 302 302 302 303 306 306 306 306 306 306 305 304 305 306 307 307 308 308 307 307 307 308 309 309 309 311 311 311 310 311 312 311 311 310 309 308 308 308 307 306 307 307 306 306 306 305 304 303 303 303 303 303 303 303 302 302 301 299 298 298 298 299 300 299 299 299 299 299 298 298 297 296 296 296 296 296 295 295 294 294 294 293 293 294 294
301 301 301 301 302 304 306 306 305 305 305 304 304 305 305 306 307 306 307 307 306 306 306 306 307 309 310 310 310 310 311 312 312 311 310 309 308 307 307 306 305 306 307 307 306 306 305 304 303 303 303 303 303 303 303 302 302 301 299 298 297 298 298 299 299 299 299 299 298 298 298 297 297 296 296 295 295 295 295 294 294 293 293 293 293 293 294
300 301 301 301 301 303 306 306 304 305 304 303 304 305 306 306 306 306 306 306 305 305 305 305 305 307 309 310 310 310 311 311 310 309 308 307 306 306 306 306 306 306 307 307 307 306 305 304 303 302 302 303 303 303 303 302 301 300 298 297 297 298 298 299 299 299 298 298 298 297 297 297 296 296 295 295 295 294 294 294 293 293 293 293 293 293 294
301 300 301 301 302 303 304 305 305 305 304 304 305 305 305 305 306 305 305 305 305 305 305 304 304 305 308 310 310 310 310 310 308 307 306 305 305 305 306 306 306 306 306 307 307 306 305 303 303 302 302 303 303 302 302 302 300 298 297 297 297 298 298 298 298 298 298 298 297 297 297 296 296 295 295 295 294 294 293 293 292 292 292 292 293 293 294
301 301 301 301 302 303 303 304 305 305 305 305 305 306 305 305 305 305 305 305 305 305 305 305 305 305 307 309 311 310 309 308 306 306 305 305 305 305 305 306 306 306 306 306 307 307 305 303 302 302 302 302 302 302 302 301 299 298 298 297 298 298 298 297 298 298 298 297 297 296 296 296 296 295 295 294 294 293 293 292 292 292 292 292 293 293 294
301 301 302 302 303 303 303 304 304 304 304 305 305 305 305 305 305 305 304 305 305 305 305 305 305 305 307 309 310 309 307 306 305 305 305 305 305 305 305 305 305 305 306 306 306 307 306 303 302 302 302 301 302 302 301 300 299 298 298 298 298 297 297 297 297 297 297 297 296 296 296 296 295 295 295 294 293 293 292 292 291 291 292 292 292 293 294
301 301 301 302 302 303 303 303 303 304 305 305 304 304 305 305 305 304 304 305 304 304 304 304 305 306 307 308 308 306 305 306 306 305 305 305 305 305 305 305 305 305 306 306 307 307 307 304 302 302 301 301 302 302 300 299 299 299 298 298 298 297 297 297 297 297 297 296 296 296 296 296 295 295 294 294 293 292 292 291 291 291 292 292 292 293 293
301 301 300 301 302 302 302 302 303 304 304 304 304 305 305 305 305 304 304 304 304 304 304 304 306 308 307 305 306 305 305 305 305 305 305 304 304 305 305 305 305 305 306 306 306 307 307 305 303 302 301 301 301 301 300 299 299 299 298 297 297 297 297 297 297 296 296 296 296 296 295 295 295 295 294 293 293 292 292 291 291 291 292 292 292 293 293
300 300 300 301 302 302 303 303 303 303 304 304 304 304 304 305 305 304 304 303 303 304 304 304 306 307 305 304 304 305 305 305 305 305 305 304 304 305 305 305 305 305 305 305 306 306 306 305 303 302 301 301 301 301 300 299 299 299 298 298 297 297 297 297 297 296 296 296 296 295 295 295 295 295 293 293 293 293 292 292 292 292 292 292 292 293 293
299 299 300 301 301 302 302 303 303 303 304 304 304 304 304 305 304 303 303 302 302 303 303 303 304 305 304 304 305 305 305 305 305 304 304 304 304 305 305 305 305 305 305 305 305 305 305 304 303 302 301 300 300 300 300 299 299 299 298 298 298 297 297 297 296 295 296 295 295 295 295 295 295 294 293 293 293 293 292 292 292 292 292 293 293 293 293
299 300 300 300 301 301 302 303 303 303 303 304 304 304 305 304 303 302 302 302 301 302 302 302 304 305 305 305 305 305 305 305 305 304 304 304 304 304 304 304 305 305 305 304 303 303 303 303 302 301 300 300 300 300 300 299 299 299 299 299 298 298 297 296 295 295 296 295 294 294 295 295 295 295 294 293 293 293 293 293 293 293 293 293 293 293 293
299 299 300 300 301 302 302 303 303 303 303 304 304 304 304 303 302 301 301 302 302 301 301 302 304 305 304 304 305 305 305 305 304 304 304 304 304 304 304 305 305 305 304 303 302 303 303 302 302 301 301 301 301 300 299 299 299 299 299 299 299 298 297 297 296 295 296 295 295 294 294 294 294 294 294 293 293 293 293 293 293 293 293 293 293 293 293
300 300 301 301 301 302 302 303 303 303 303 304 303 302 302 301 301 301 301 302 302 302 302 303 304 305 304 304 305 305 305 304 303 303 303 304 304 304 304 304 304 303 303 302 303 303 303 302 302 301 301 302 301 299 298 299 299 299 299 299 299 298 297 297 296 296 296 295 295 294 294 294 294 294 294 293 293 293 293 293 293 293 293 293 293 293 293
301 301 301 301 301 302 302 302 302 302 303 302 302 301 301 300 300 301 301 302 303 302 302 303 304 304 304 304 305 304 304 303 303 303 303 304 304 304 304 303 303 303 302 302 302 303 302 302 302 302 302 302 301 299 298 298 299 299 298 298 298 298 298 297 297 296 296 295 295 294 294 294 294 294 294 293 293 292 292 293 293 293 294 294 294 293 293
301 301 301 301 301 302 302 301 301 302 302 301 302 302 301 301 300 300 302 303 303 302 302 303 303 303 303 304 304 304 303 303 303 303 303 303 303 303 303 302 302 302 302 302 302 302 302 302 302 302 302 302 301 300 298 298 298 299 298 298 298 297 298 298 297 296 296 295 295 294 294 293 294 293 293 293 293 292 291 292 293 293 293 294 294 294 294
301 301 301 302 302 302 302 301 301 302 302 302 302 303 302 302 301 302 303 304 302 301 302 303 303 303 304 304 303 303 303 303 303 303 303 303 303 303 302 302 303 302 302 302 302 303 303 302 302 302 302 302 301 300 299 299 298 298 298 298 297 297 297 297 297 296 296 295 294 294 293 292 293 293 293 293 293 292 291 292 292 292 292 293 293 294 294
301 301 301 302 302 302 302 301 302 302 302 302 302 303 303 303 302 303 305 304 302 302 303 303 303 303 304 303 303 303 302 302 302 303 303 303 302 302 302 302 302 302 302 302 302 302 303 303 302 302 302 301 301 301 300 299 299 298 297 297 297 297 297 297 297 297 296 295 295 294 293 293 293 293 293 293 293 292 291 291 292 292 292 292 293 293 293
301 301 301 301 301 301 301 301 301 301 302 302 302 302 302 302 303 304 305 303 302 302 303 302 302 303 304 303 303 303 302 302 302 303 303 302 302 302 302 302 302 302 302 302 302 302 303 303 303 302 301 300 300 301 300 299 299 298 298 297 297 297 297 297 297 297 297 296 295 294 294 294 294 293 293 293 293 293 291 291 292 293 292 292 292 292 292
300 301 300 300 301 301 301 301 300 301 301 301 301 302 302 302 303 305 305 303 301 302 301 301 301 303 303 302 302 302 302 302 302 302 302 302 301 301 302 302 302 302 302 302 302 303 303 303 303 302 302 301 300 300 300 299 298 298 298 298 297 297 297 297 297 297 296 296 295 295 295 294 294 293 293 293 293 293 292 291 291 292 293 292 291 291 291
300 300 300 300 300 300 301 300 300 300 300 300 300 300 301 302 303 305 304 302 301 301 300 300 301 302 302 302 301 301 302 302 302 302 302 302 301 302 302 302 302 302 302 302 302 303 303 303 303 302 302 302 301 300 299 299 299 298 298 298 298 297 297 297 297 296 296 296 295 295 295 295 294 294 293 293 293 293 293 292 291 291 292 292 292 291 291
300 300 300 300 300 300 299 299 299 299 299 299 299 300 300 301 302 302 301 300 300 300 300 300 301 302 302 302 302 301 302 302 302 302 302 301 301 301 301 301 301 301 301 302 302 302 302 303 302 302 303 303 302 301 300 300 299 299 299 298 298 297 297 297 297 297 297 296 296 296 295 295 295 294 293 293 293 293 293 292 291 290 291 292 292 292 292
299 299 299 298 298 298 298 298 298 298 298 298 299 300 300 301 300 300 300 300 301 300 300 300 301 302 302 302 302 301 302 301 301 301 301 301 301 301 301 301 301 301 301 301 301 301 301 302 301 302 302 302 302 302 301 301 301 300 300 299 298 298 298 299 299 298 297 297 297 296 295 295 295 294 294 293 294 293 293 293 292 291 290 290 291 292 292
298 298 298 298 297 297 297 296 296 296 297 297 298 299 300 300 300 299 300 300 300 299 299 300 301 302 302 302 301 301 301 301 301 301 301 300 300 299 299 299 299 299 300 300 300 300 301 301 301 301 301 301 301 301 301 301 301 301 300 300 299 299 299 300 299 298 298 298 297 296 296 295 295 294 294 293 293 294 293 293 292 292 291 290 290 291 291
298 298 298 297 297 296 296 296 296 295 296 297 298 298 299 299 299 300 299 299 299 299 301 301 301 301 301 301 301 301 300 300 299 298 297 296 295 294 294 294 294 295 296 297 298 298 299 299 300 300 301 301 301 301 300 301 301 301 300 300 300 300 300 300 299 298 298 299 297 296 296 295 295 294 294 294 294 294 294 293 293 292 291 290 289 289 290
297 297 297 297 296 296 296 296 296 296 295 296 297 298 298 299 299 298 298 298 299 300 300 300 300 300 300 300 300 299 299 298 297 296 295 293 293 293 293 292 292 293 294 295 296 297 297 298 298 298 299 300 300 301 301 301 301 301 300 300 300 300 300 300 299 299 299 299 298 297 296 296 295 295 295 295 294 294 294 294 293 293 292 291 289 289 289
297 297 296 296 296 296 296 296 296 296 296 296 296 297 297 298 298 298 298 298 299 299 299 299 299 298 298 298 298 298 297 296 296 295 295 294 293 293 293 292 292 292 293 294 295 295 295 296 298 298 298 299 300 300 300 300 300 300 300 300 300 300 300 300 300 300 299 299 298 297 297 296 296 296 296 295 295 294 293 293 293 293 293 292 291 290 289
296 296 296 296 296 296 296 296 296 296 296 296 296 297 297 298 298 298 298 297 297 297 297 298 298 297 297 297 297 297 297 296 296 296 295 295 294 294 293 293 293 292 293 293 294 293 293 295 297 297 297 298 298 299 300 300 300 300 299 300 300 300 300 299 299 300 299 299 298 298 297 296 296 296 296 295 295 295 294 294 293 293 293 293 293 292 291
296 296 296 296 296 296 296 296 296 296 296 297 297 297 297 297 297 297 296 296 295 295 295 296 296 296 296 295 295 296 297 297 297 296 296 296 295 295 295 294 293 293 293 293 293 293 292 293 295 295 296 296 297 297 298 299 299 299 299 299 299 300 300 299 299 299 299 299 298 298 297 297 296 296 296 295 295 295 295 295 295 294 294 294 293 293 293
296 296 296 296 296 295 295 295 295 295 296 296 296 296 297 297 297 297 296 295 295 295 294 294 295 296 295 295 294 295 296 296 296 296 296 296 296 296 295 294 294 294 294 293 293 293 292 292 292 293 293 294 294 294 296 298 298 298 299 299 299 299 299 299 299 298 298 298 298 298 297 297 297 296 296 296 296 296 295 295 295 295 295 294 294 293 293
296 296 296 295 295 295 295 294 294 294 294 295 295 295 296 296 296 297 297 296 296 295 295 295 295 295 295 294 294 294 294 294 294 294 295 295 295 295 295 294 293 294 294 294 294 293 292 292 292 291 292 292 292 293 295 296 297 297 298 299 298 299 299 299 299 298 298 298 298 298 297 297 297 296 296 296 296 296 296 296 296 296 295 295 295 294 294
296 296 295 295 295 295 294 294 294 294 294 294 294 294 295 295 295 296 296 296 296 296 295 294 295 295 294 294 294 295 295 295 294 294 294 294 294 294 294 294 294 294 295 295 295 293 292 292 291 291 291 291 291 292 294 296 296 296 297 297 298 298 299 299 299 299 298 298 298 298 297 297 297 296 296 297 297 296 296 296 296 296 296 296 295 295 295
295 295 295 295 295 295 294 294 294 294 294 294 294 294 294 294 294 294 294 295 295 294 294 294 294 294 294 294 294 295 295 295 295 295 295 294 294 294 294 294 294 295 295 295 295 294 293 292 291 291 291 291 291 292 293 294 294 294 294 295 296 297 298 298 299 299 299 298 298 298 297 297 296 296 296 297 297 297 296 296 296 296 296 296 296 295 295
295 295 294 295 295 295 294 294 294 294 293 293 294 293 293 293 293 293 293 293 293 293 293 293 294 294 294 294 294 294 294 294 294 295 294 294 293 293 293 294 294 295 295 295 294 293 292 292 291 291 291 291 291 292 293 293 292 292 292 292 293 294 296 297 298 299 299 299 298 298 298 297 296 296 296 297 297 297 297 296 296 296 296 295 295 295 295
294 294 294 294 294 294 294 294 293 293 293 293 293 293 293 293 292 292 292 293 293 293 293 293 293 293 293 293 293 294 294 294 293 293 293 293 293 293 294 294 294 294 295 295 294 293 292 291 291 291 291 291 291 291 292 292 292 292 291 291 291 293 294 295 296 298 298 298 299 299 298 298 297 297 297 297 297 297 297 297 297 297 297 296 296 295 295
294 294 294 294 294 294 294 294 293 293 293 292 292 291 291 291 291 291 290 291 291 291 292 292 292 292 292 292 292 292 293 293 293 292 292 292 291 292 293 293 294 293 293 293 292 292 291 291 291 291 291 290 290 290 291 291 292 292 291 291 292 292 293 294 295 296 297 298 298 298 298 298 298 298 298 298 298 298 298 298 298 298 297 297 296 296 296
294 294 294 293 293 293 293 293 293 293 292 292 291 291 290 290 290 290 289 289 289 289 289 289 289 289 289 289 290 290 290 290 291 291 290 290 290 290 291 291 291 291 291 291 290 291 291 291 290 290 290 290 290 290 290 291 291 292 292 292 292 292 293 294 294 295 296 297 297 298 298 298 298 298 298 299 298 298 298 298 298 298 298 297 297 297 297
293 293 293 293 293 293 293 293 293 292 292 291 291 291 291 290 290 290 289 289 289 289 289 288 288 288 288 288 288 288 288 288 288 288 288 288 288 288 288 289 289 289 289 289 289 289 289 290 290 289 289 289 289 289 290 290 291 292 292 292 292 292 292 293 294 295 295 295 296 296 297 298 298 298 298 298 298 299 299 299 298 298 298 297 297 297 297
293 293 293 293 293 293 293 292 292 292 291 291 291 290 290 290 290 289 289 289 289 288 288 288 288 287 287 287 287 287 287 287 287 287 287 286 286 286 286 287 287 287 287 287 287 288 288 288 288 289 289 288 288 289 289 290 291 292 293 293 293 292 293 293 294 294 294 294 294 295 295 296 297 298 298 298 298 298 298 298 298 298 298 298 297 297 297
293 293 293 293 292 292 292 292 291 291 290 290 290 290 289 289 289 288 288 288 288 287 287 288 287 286 286 286 287 286 286 286 286 286 286 285 285 285 286 285 285 286 286 286 286 286 286 287 287 287 287 287 287 288 289 290 291 292 293 293 293 293 293 293 293 293 294 294 294 294 295 295 296 297 297 298 298 298 298 298 298 298 298 298 298 298 298
292 292 292 292 292 292 291 291 290 290 289 289 289 288 288 288 288 288 287 287 287 286 286 286 286 286 285 284 285 285 285 285 285 285 285 285 284 284 285 285 285 285 285 285 285 285 285 286 286 286 287 287 287 287 289 289 290 290 292 293 293 293 293 293 292 293 293 293 294 294 295 295 296 297 297 297 297 297 297 297 297 298 298 298 298 298 298
Wind_Speed
18 19 20 19 16 16 17 18 19 19 19 19 17 17 19 16 13 13 15 16 14 14 19 22 21 22 20 18 18 19 20 20 20 20 21 21 20 20 20 20 20 20 20 16 13 14 15 12 11 10 9 9 10 9 9 8 8 7 7 7 7 10 13 15 17 18 18 17 15 13 13 15 16 18 19 20 20 20 21 21 21 23 25 25 26 28 30
18 19 19 19 18 17 17 19 21 20 20 20 19 19 20 20 19 18 19 20 16 15 20 23 24 26 26 25 26 24 21 21 21 21 22 21 21 20 19 19 19 17 16 14 12 12 12 11 10 10 10 10 11 10 10 9 8 7 6 6 8 10 12 14 16 18 16 14 13 13 15 16 17 18 19 20 20 20 21 22 22 24 25 25 26 29 30
15 18 18 18 18 18 18 19 21 21 20 20 19 18 17 19 19 18 19 19 16 16 21 24 26 28 27 27 28 24 23 26 26 24 22 20 20 19 18 16 15 14 13 13 12 11 10 10 11 11 11 12 12 11 11 10 8 7 6 6 9 11 13 15 16 16 14 12 12 13 15 17 17 18 18 19 20 21 21 22 23 24 25 26 27 28 29
13 15 16 17 17 17 18 20 21 21 18 16 15 14 14 14 14 15 17 15 13 15 18 20 24 25 23 24 26 25 27 31 28 23 21 20 19 17 15 14 13 13 12 12 11 10 9 9 11 12 12 13 13 12 11 10 8 6 6 7 9 12 13 15 15 13 11 11 12 13 15 16 16 17 19 20 20 21 22 23 24 24 25 26 27 27 27
12 15 15 14 13 13 14 14 15 16 17 16 16 14 15 15 13 13 13 13 14 16 16 17 19 19 19 21 23 23 23 24 23 21 20 18 16 14 14 14 13 12 11 10 8 8 8 8 9 11 12 13 13 13 12 10 8 6 6 8 10 12 14 14 13 11 10 11 12 13 14 15 16 18 20 20 21 22 23 23 24 26 27 28 28 28 28
12 15 14 11 11 13 12 10 9 11 13 15 15 14 15 16 15 14 14 16 18 18 18 17 17 17 18 16 14 12 11 12 16 18 17 15 14 14 14 13 11 10 9 8 6 7 9 10 11 11 12 14 15 14 12 10 7 5 5 7 10 12 13 13 11 9 10 11 12 13 14 15 17 19 20 21 22 23 24 25 26 29 31 32 33 32 29
11 12 11 11 12 11 10 10 11 13 14 15 16 17 19 19 19 19 20 21 20 21 22 22 21 23 22 14 9 8 9 11 15 15 15 15 15 14 13 11 10 8 7 5 5 7 9 12 13 13 13 15 17 15 12 9 6 5 5 6 8 11 13 12 10 9 10 12 13 13 14 16 19 21 21 22 23 23 24 26 29 32 34 35 35 33 30
10 10 10 12 10 10 14 15 13 13 13 13 13 15 17 17 17 18 19 20 21 22 24 27 27 25 19 12 12 12 10 10 13 14 14 14 14 13 11 10 9 6 5 4 6 8 11 13 13 13 14 17 17 14 11 8 6 5 5 6 8 10 11 10 9 9 11 13 14 14 16 18 20 21 22 23 23 23 24 26 28 31 34 34 32 32 30
10 10 11 11 11 14 15 10 5 5 5 6 6 9 13 14 11 12 13 15 17 18 21 26 23 13 7 7 13 15 10 9 11 12 13 13 13 12 10 9 7 4 4 5 8 11 14 13 12 12 17 19 16 13 10 7 5 4 5 6 7 8 9 9 9 10 12 13 15 15 17 19 21 22 24 25 24 23 23 24 26 28 29 29 28 29 30
9 10 10 10 11 12 8 2 2 1 3 3 3 7 12 9 4 7 10 11 12 13 17 21 14 3 2 6 12 14 12 13 12 13 14 13 12 11 8 7 5 3 4 6 9 12 14 13 12 14 19 18 14 12 10 7 5 4 4 5 6 7 8 9 9 10 12 14 15 16 18 20 21 23 26 26 24 21 21 24 27 28 27 26 27 28 29
9 10 10 9 9 9 5 1 2 3 4 3 3 9 10 3 7 12 14 14 15 13 15 17 11 3 4 8 11 14 16 17 14 14 14 11 10 9 6 5 4 3 4 7 10 11 12 12 13 17 20 17 13 12 9 7 5 4 4 5 6 7 8 10 9 10 12 14 16 17 19 20 21 24 28 27 23 23 24 26 28 27 25 25 27 29 31
9 10 10 8 8 9 6 4 5 8 7 4 5 10 7 7 15 18 15 15 19 18 18 17 8 7 9 8 8 14 19 18 14 13 12 9 9 7 5 5 4 3 5 7 7 9 10 11 14 20 20 15 13 11 8 6 5 4 4 4 7 8 9 9 9 10 12 14 16 17 19 20 21 25 29 28 25 25 28 27 26 25 25 25 28 33 32
10 11 9 8 8 7 4 5 9 10 7 5 7 7 8 15 21 21 17 17 19 18 20 17 9 12 15 8 12 17 19 16 12 11 10 8 7 6 4 4 4 4 4 5 7 8 9 10 17 22 19 15 12 10 7 5 4 3 3 5 8 8 8 8 9 10 12 14 15 16 17 18 20 25 31 28 25 26 27 25 24 25 26 26 29 33 30
9 9 8 9 8 2 3 8 12 8 5 6 6 9 14 18 21 22 21 20 18 17 19 17 14 17 15 5 19 21 17 14 11 10 9 7 6 4 2 2 2 3 3 5 7 8 8 12 21 22 18 15 12 9 7 5 4 2 2 6 7 7 7 7 9 10 11 13 14 15 17 18 20 26 30 27 24 26 25 24 25 28 29 29 31 32 28
8 8 8 10 7 1 5 11 10 3 4 8 11 15 18 18 19 21 21 19 18 16 17 18 16 15 12 4 14 17 14 12 11 9 7 6 4 2 2 1 1 2 3 4 5 6 7 14 23 22 17 15 11 8 7 5 3 1 3 6 6 5 6 8 9 10 11 13 14 15 17 18 21 26 28 24 23 25 24 24 27 31 32 32 31 31 29
5 7 7 6 6 8 12 12 8 5 9 14 16 18 19 17 18 20 19 19 19 16 15 17 15 13 13 7 8 12 10 10 10 8 6 5 3 2 1 0 1 2 4 4 5 5 7 15 24 23 18 14 11 8 6 4 2 1 4 7 5 5 7 8 9 10 11 12 13 15 17 18 21 26 27 23 23 24 23 23 27 29 31 31 31 32 31
5 8 10 12 16 20 19 15 12 13 16 18 18 18 18 16 17 18 19 20 20 17 15 15 12 11 14 9 7 9 8 8 8 6 5 4 2 2 1 1 1 2 3 4 5 6 6 14 23 23 18 14 11 8 6 4 3 2 4 5 5 6 7 8 9 10 11 12 13 15 16 18 20 25 26 22 21 23 23 23 24 25 28 32 33 32 31
8 12 16 18 20 20 18 15 15 16 16 16 17 16 15 15 16 17 19 19 19 17 15 14 11 11 12 8 7 8 7 7 7 5 4 4 3 2 2 1 1 1 2 3 5 7 7 12 20 23 18 14 11 8 6 6 4 4 5 5 5 6 8 8 9 10 11 12 13 14 16 17 19 24 25 22 21 24 25 25 24 26 30 34 35 33 32
8 9 11 13 15 17 18 18 18 16 13 12 13 12 13 15 16 16 18 19 17 15 14 12 10 9 8 6 7 7 6 6 6 6 5 4 4 3 3 3 3 2 0 2 5 8 8 11 18 21 19 15 12 9 8 7 6 6 6 6 5 6 8 8 9 10 11 13 14 14 15 16 17 22 25 23 22 24 27 28 29 30 33 35 35 35 34
10 11 14 17 19 20 19 17 14 11 9 10 12 13 15 16 15 15 17 17 15 14 13 9 8 6 4 4 6 6 6 6 6 6 6 5 5 4 4 4 5 3 1 1 4 8 9 11 17 21 20 16 12 10 9 7 7 6 8 9 8 7 8 8 9 10 11 13 14 14 15 16 16 20 26 24 22 23 26 27 29 31 32 33 33 34 33
12 14 16 17 17 15 13 12 11 10 10 12 15 16 16 16 15 14 16 16 14 13 10 5 9 8 7 6 5 4 5 6 7 7 7 5 4 3 3 3 4 4 3 1 3 6 8 12 18 22 21 18 14 11 10 8 7 7 8 10 9 7 7 8 9 10 10 12 13 14 15 15 14 18 25 26 23 22 23 24 24 26 28 29 29 30 30
10 10 11 11 11 10 11 14 15 14 12 13 16 17 16 16 15 14 16 17 11 4 1 5 8 8 8 8 5 4 5 6 7 7 6 5 3 2 2 2 3 5 5 2 4 7 9 15 21 23 22 19 16 12 10 9 8 7 6 7 6 6 7 8 10 10 9 11 13 13 14 15 14 17 23 26 25 23 22 21 21 22 23 24 25 27 27
11 14 16 17 14 13 16 18 17 16 15 14 15 15 13 14 14 13 16 18 8 6 9 6 5 5 7 8 6 5 5 6 6 6 5 4 3 2 2 1 2 5 5 2 8 13 16 20 23 23 22 19 15 12 11 9 8 6 5 5 5 6 7 8 12 12 9 11 13 13 13 14 15 16 19 23 25 24 21 20 19 20 21 21 22 24 24
16 19 20 19 17 17 20 19 18 17 15 12 13 13 13 14 16 16 17 15 4 8 8 3 2 4 7 8 7 6 6 6 6 6 5 4 3 2 2 1 3 5 5 7 12 17 20 22 23 22 20 17 14 12 11 9 8 7 5 5 6 6 6 7 10 11 9 10 12 13 13 14 14 15 18 21 24 26 24 20 18 19 21 21 20 20 21
18 19 18 17 18 20 21 20 19 16 11 9 13 15 15 16 17 17 16 12 3 9 5 2 0 4 7 9 9 9 9 8 7 6 6 5 3 2 2 3 3 5 8 12 14 15 17 20 22 20 17 14 14 13 10 8 8 7 5 6 5 5 6 7 8 9 10 11 12 13 14 14 13 14 17 18 20 25 27 23 18 17 19 20 19 18 19
18 18 17 18 19 19 18 18 16 13 10 12 15 16 16 17 16 14 14 11 6 11 6 3 1 5 8 10 11 11 11 11 9 8 8 7 6 5 6 6 5 7 11 14 13 12 15 18 19 18 15 14 14 13 11 9 8 7 6 6 6 6 8 9 7 8 10 11 12 13 14 14 13 13 15 16 17 23 28 27 22 19 18 19 19 18 18
16 15 14 15 15 14 14 15 14 13 13 15 16 16 16 16 14 12 13 11 7 10 4 1 4 8 9 12 14 14 13 13 12 11 12 12 10 10 10 9 8 10 14 15 14 12 12 15 17 15 13 14 14 13 11 10 9 7 6 6 6 6 11 13 9 8 9 11 13 14 14 14 14 14 15 15 15 21 27 28 25 23 21 19 19 19 17
15 13 12 12 12 13 15 16 17 16 15 15 15 15 14 14 12 10 10 8 9 11 5 2 5 8 10 13 15 15 14 14 13 14 15 15 12 12 11 10 10 13 14 14 13 12 9 8 14 15 13 13 15 13 11 9 8 8 5 4 4 3 7 10 9 7 9 11 14 15 17 17 16 15 16 15 14 19 26 27 24 23 23 20 18 17 16
13 11 10 11 11 13 15 16 17 16 14 14 14 13 13 13 11 9 8 7 11 12 6 4 8 10 12 14 15 14 14 14 14 16 18 17 16 14 11 10 11 12 13 13 11 7 8 6 7 12 14 16 16 13 11 9 7 7 6 4 3 2 3 6 7 7 9 11 14 17 19 19 16 14 15 14 13 16 24 27 26 24 24 23 20 18 18
9 7 8 10 11 12 14 16 16 15 14 13 13 12 12 12 10 9 8 7 12 12 8 8 11 12 13 16 16 15 14 14 14 15 18 21 22 20 15 12 12 12 13 14 12 7 4 7 6 5 13 21 20 15 13 12 9 7 7 5 3 2 2 5 7 8 8 9 13 16 17 15 14 14 15 14 13 14 20 25 27 26 25 25 25 23 22
7 6 7 10 10 11 13 14 14 15 14 13 12 13 12 10 9 9 7 7 11 12 10 12 14 15 16 18 17 16 15 14 15 16 18 20 22 22 19 15 13 11 11 12 11 7 5 5 6 5 6 15 19 17 15 14 12 9 7 5 5 2 2 5 7 8 8 9 11 13 13 12 13 14 14 13 12 13 16 20 25 26 25 25 26 27 25
8 6 6 7 7 9 11 12 13 14 14 12 13 13 9 7 9 8 9 13 12 11 12 14 15 17 19 19 17 17 16 16 17 18 19 20 20 21 19 17 14 12 10 10 9 7 5 3 3 4 4 4 10 15 16 15 13 11 8 5 5 6 5 6 7 8 8 8 9 10 11 12 12 12 13 14 13 13 13 15 19 24 26 25 25 26 26
5 4 4 6 8 9 10 11 12 13 13 13 13 10 5 3 5 5 16 20 16 13 14 15 16 18 19 18 17 17 17 18 19 20 21 22 22 22 21 20 19 17 15 12 11 10 7 4 3 3 3 2 5 12 14 13 12 12 9 5 4 6 7 6 6 7 7 7 7 8 9 11 11 10 12 14 13 12 12 12 14 18 23 25 25 24 24
7 7 7 9 9 8 8 9 11 12 12 11 9 6 3 6 10 16 20 19 15 15 17 17 17 18 18 17 16 16 17 19 22 23 24 25 25 24 24 23 23 22 21 19 18 16 13 10 8 6 4 3 5 8 9 9 9 11 9 7 6 7 7 4 3 5 7 6 6 7 7 9 10 11 13 13 12 12 13 13 12 13 16 21 23 24 23
8 9 11 12 11 10 9 9 10 10 10 9 8 9 12 17 22 21 18 16 18 20 20 20 19 19 18 18 18 19 21 23 25 26 27 28 27 26 26 25 25 25 25 23 22 21 18 16 13 11 9 7 5 3 1 4 7 9 9 10 10 9 7 4 2 4 5 4 3 4 5 5 8 11 14 13 11 11 12 13 12 11 11 14 18 21 23
9 11 13 13 13 15 16 16 15 14 13 12 10 13 18 22 22 21 20 21 22 21 21 23 24 24 22 22 23 23 25 26 27 29 31 31 31 30 30 29 29 28 27 26 24 22 20 18 16 14 14 13 11 9 7 5 3 2 2 5 7 7 6 4 3 3 2 1 1 2 2 2 6 10 13 12 11 11 11 12 13 12 11 12 13 16 19
10 12 13 14 16 19 22 23 23 23 22 20 19 20 23 24 24 23 24 25 23 21 23 27 29 28 26 25 25 26 25 25 26 28 30 32 33 33 33 32 31 29 28 27 25 22 21 21 20 18 18 17 15 12 10 9 8 8 7 3 1 2 4 5 5 3 2 1 2 3 2 2 4 7 9 10 10 11 11 11 11 12 13 13 13 13 13
12 13 15 16 18 20 22 23 24 25 28 28 28 27 26 26 25 25 25 25 26 27 27 27 28 28 28 27 27 27 26 27 28 29 30 31 33 34 34 33 31 29 28 27 24 22 22 22 20 19 20 20 19 17 14 10 9 9 8 6 5 5 4 3 3 2 2 1 2 2 2 2 2 4 6 8 9 10 11 11 11 11 12 14 14 14 13
17 16 16 17 18 18 20 21 23 25 27 28 28 27 26 25 25 25 26 27 28 29 28 26 25 25 27 27 27 25 24 24 26 27 27 29 31 32 32 30 28 26 26 25 23 22 23 22 19 18 19 20 19 19 18 16 14 11 9 8 8 9 8 6 4 3 3 2 2 3 3 4 4 4 5 6 7 9 10 12 12 11 11 12 14 14 15
19 19 19 19 19 20 21 22 24 25 26 25 24 23 22 21 22 24 24 24 24 25 27 28 28 26 27 29 29 26 23 20 21 22 22 23 25 26 26 26 25 24 24 24 22 22 23 23 20 18 19 19 18 18 18 18 17 15 12 11 10 10 10 9 8 6 4 2 2 3 5 6 6 6 6 5 6 7 8 9 10 10 10 11 11 13 14
19 20 19 19 20 20 22 25 26 27 26 25 24 23 21 19 20 20 21 20 20 20 22 25 27 27 27 27 27 26 24 21 20 19 19 20 21 21 22 22 22 20 21 22 21 20 22 22 21 20 19 18 17 17 17 16 15 15 15 14 13 11 11 11 11 9 8 5 4 5 7 7 7 7 6 5 5 6 7 8 8 9 10 10 10 11 12
21 20 20 21 21 21 23 26 28 29 28 27 26 25 23 21 20 19 17 16 16 17 17 20 22 24 25 25 24 23 22 21 20 19 19 19 19 18 19 19 18 17 18 19 19 19 20 20 19 18 18 18 16 16 16 15 13 13 14 15 15 14 13 12 12 12 11 8 4 7 10 9 7 6 6 5 5 5 6 7 8 8 9 10 10 10 10
21 21 22 23 23 22 24 26 28 29 30 29 27 27 25 24 22 20 17 15 14 15 16 18 19 20 22 22 21 19 18 16 16 17 17 17 17 16 16 16 15 14 15 16 18 18 19 18 17 17 17 16 15 16 16 14 13 13 13 13 14 15 15 14 13 13 12 11 7 6 10 10 9 8 6 4 4 3 4 5 6 6 7 8 9 9 10
20 19 20 21 21 22 23 24 26 28 29 29 28 28 27 26 24 22 19 17 16 15 15 16 17 17 18 18 18 17 15 13 12 12 13 13 13 13 12 12 12 11 12 15 17 18 18 17 16 16 15 15 14 14 15 14 13 13 12 11 12 13 14 14 14 14 13 13 11 7 7 9 10 9 8 5 2 1 1 2 2 3 4 5 6 7 8
19 19 19 20 20 22 22 23 24 25 26 26 26 27 27 26 25 24 22 21 20 18 17 16 16 17 16 15 14 14 13 12 11 11 10 11 11 10 9 9 10 10 11 13 16 17 16 16 15 15 14 14 13 13 13 13 13 13 12 10 9 10 11 12 13 14 13 13 13 10 7 7 8 7 6 5 3 2 3 3 3 2 2 2 3 4 4
18 18 18 19 20 20 20 21 21 22 22 23 23 23 23 22 22 22 21 20 19 18 17 16 15 15 14 12 11 10 10 10 9 9 9 9 9 8 8 8 9 10 12 13 15 15 15 15 14 13 13 13 12 11 11 11 11 12 11 10 9 9 9 9 10 11 12 12 12 12 10 7 5 4 4 4 3 2 2 3 3 2 3 4 3 3 3
17 16 16 17 18 18 18 18 18 18 19 20 20 20 20 19 19 19 19 18 16 15 14 13 12 11 11 10 9 8 8 8 9 8 7 6 7 8 9 10 10 12 13 14 14 14 14 14 13 12 12 11 10 9 9 9 9 10 10 9 9 8 7 8 8 9 9 10 10 10 10 10 8 6 3 1 1 2 2 3 4 3 4 6 6 5 5
15 15 14 15 15 16 16 16 16 16 16 17 16 16 16 16 17 17 17 16 16 15 15 14 13 12 11 10 9 8 7 6 6 6 6 6 6 8 11 12 12 12 13 13 14 13 13 13 12 11 10 9 8 7 7 7 7 7 8 8 8 7 7 7 7 7 7 8 8 8 8 8 8 8 7 6 5 5 4 3 3 3 2 5 7 7 6
13 13 13 13 13 14 13 13 13 14 13 13 13 12 12 12 12 13 13 13 13 13 13 13 13 13 12 11 11 10 8 7 6 6 7 8 8 9 11 12 13 13 12 12 12 12 12 12 11 10 9 8 6 6 5 5 5 6 6 7 7 7 6 6 6 6 6 6 6 7 7 7 7 7 7 6 6 6 6 5 5 4 2 1 4 6 7
11 11 11 11 11 11 11 11 11 11 10 10 10 10 9 9 9 10 11 11 10 9 9 9 10 10 10 9 9 9 8 7 7 6 6 7 9 11 11 12 12 12 11 10 10 10 10 9 9 8 7 5 5 4 4 3 3 3 4 5 5 6 6 5 5 5 5 6 6 6 6 6 6 6 6 6 6 5 5 5 5 5 4 2 0 3 5
10 10 10 11 10 10 10 10 10 10 9 9 8 8 8 8 8 8 10 10 9 8 8 8 8 8 8 7 6 7 7 6 6 6 6 6 7 8 9 10 10 9 9 8 7 7 7 7 6 5 5 4 3 2 2 1 1 1 2 3 4 4 5 5 5 4 4 5 5 5 6 6 5 5 5 6 6 6 5 4 4 3 3 3 2 1 1
10 10 10 10 9 8 8 9 9 9 8 7 6 6 7 7 6 7 10 10 9 8 8 7 7 8 9 7 6 6 6 6 5 5 5 5 5 6 7 7 7 7 7 6 5 4 4 4 4 3 3 2 1 1 1 1 0 0 0 0 1 3 4 5 5 4 4 4 4 4 5 5 5 5 5 5 5 5 5 5 4 4 3 2 2 1 0
Wind_Direction
270 275 279 282 282 279 277 276 275 274 272 268 262 260 262 262 262 266 271 270 265 274 281 278 274 274 272 269 268 262 253 245 236 231 230 226 224 228 230 233 237 238 238 235 227 227 231 229 229 234 241 249 253 250 245 238 230 222 218 229 258 281 292 297 301 303 301 298 293 290 290 289 290 290 290 291 290 289 287 284 283 284 283 281 278 278 280
275 275 277 279 278 276 275 272 271 270 267 265 264 263 262 261 260 263 265 264 260 258 263 264 265 269 271 272 276 274 267 259 246 233 229 228 228 231 233 234 233 229 223 215 205 209 219 222 226 234 241 248 252 247 238 229 221 216 223 248 276 292 298 300 304 305 302 296 292 289 287 290 295 296 295 294 293 292 290 288 287 287 286 283 279 279 280
274 273 273 273 272 273 274 273 272 269 267 267 266 262 260 259 260 258 255 258 262 257 257 260 263 263 261 260 262 259 255 254 248 234 228 228 229 232 232 226 218 205 197 196 199 207 215 223 233 240 244 248 248 240 228 218 210 212 233 268 289 298 302 304 307 306 300 294 290 288 289 296 299 299 298 298 297 295 294 292 292 290 287 284 282 280 278
270 270 268 269 273 279 277 271 267 263 261 260 258 257 256 255 258 260 255 255 260 258 256 260 262 258 252 251 251 248 249 249 243 231 226 226 226 226 219 201 189 187 190 194 202 209 214 225 237 242 247 248 240 225 213 202 196 212 251 281 295 303 307 308 309 304 296 293 292 292 295 300 302 302 303 302 300 298 297 296 295 292 288 285 282 280 277
270 272 274 278 284 283 271 263 258 253 249 249 253 259 260 257 257 259 258 259 264 266 267 268 263 254 247 246 245 244 246 243 231 223 222 222 215 203 190 181 179 185 193 195 197 205 217 231 238 242 249 245 227 209 200 194 199 227 268 289 301 308 311 311 308 300 295 295 294 295 298 302 306 307 307 305 304 302 300 298 296 293 290 288 286 282 279
268 272 277 281 273 263 261 269 270 261 259 261 264 265 264 262 259 256 259 266 270 272 273 272 267 259 254 248 244 251 260 249 232 220 209 199 186 173 168 172 176 179 184 192 202 218 232 239 242 248 250 237 218 204 196 197 210 237 267 291 304 310 312 311 305 298 297 297 295 296 301 304 309 310 310 310 309 307 304 302 301 300 298 296 295 290 282
264 270 273 267 256 255 268 278 278 278 278 276 274 275 273 269 266 264 263 264 267 269 270 270 267 261 258 254 257 273 271 247 228 208 186 174 167 161 163 168 172 174 180 197 220 233 242 247 251 255 247 227 213 202 195 198 215 240 270 295 303 307 311 309 303 299 298 296 296 300 303 306 309 311 313 314 312 309 307 305 305 306 305 302 299 293 285
261 262 258 255 260 279 285 281 284 288 282 276 279 279 275 271 273 275 272 271 273 270 268 270 267 259 255 259 268 272 267 240 217 190 172 168 163 161 165 163 160 169 184 209 236 244 248 252 257 255 234 216 205 194 190 197 214 244 287 305 301 303 308 306 302 300 298 297 298 301 304 307 310 312 314 316 314 310 307 306 306 306 305 301 296 291 285
257 260 261 263 271 282 282 283 308 324 304 296 300 287 280 284 292 296 293 291 291 288 286 285 276 259 253 271 265 257 242 217 201 177 162 159 153 151 156 155 156 181 214 238 250 251 250 252 256 240 217 205 196 188 188 195 212 247 293 306 301 301 303 301 300 299 298 299 299 301 306 309 310 313 317 317 316 311 307 305 304 303 301 297 291 287 284
258 263 269 270 268 272 274 216 154 341 328 320 316 292 287 293 337 342 332 322 314 314 309 301 293 265 250 270 258 243 214 186 174 158 147 146 145 145 149 153 165 198 231 244 250 249 248 251 248 223 205 196 188 183 186 195 211 243 277 292 298 299 297 297 299 299 299 300 301 303 307 309 311 317 321 320 316 312 309 307 306 303 299 293 288 285 282
259 260 264 267 263 269 280 228 230 313 344 355 319 290 284 315 7 345 339 332 326 332 326 311 299 247 241 255 244 220 189 173 166 154 146 145 147 148 149 154 166 195 225 238 247 248 247 250 236 211 196 187 181 180 186 197 211 242 265 281 298 302 299 300 299 301 303 302 302 303 307 311 316 320 322 320 317 315 315 312 308 304 299 292 289 288 286
253 254 261 266 265 270 283 311 333 337 341 336 283 271 282 352 344 336 340 334 327 332 332 322 296 240 253 261 229 194 177 172 166 152 145 147 149 149 145 150 171 210 232 242 250 251 252 244 218 200 188 180 178 181 187 198 212 243 265 292 310 311 307 306 305 307 309 306 303 303 306 312 318 322 323 322 320 320 321 317 309 304 301 296 295 296 293
257 258 261 264 268 273 294 341 347 341 323 281 254 266 321 339 329 328 335 331 327 332 333 330 312 284 281 248 174 169 172 170 155 139 139 142 142 141 140 158 196 221 232 245 247 248 253 230 201 191 183 176 179 182 185 197 216 237 274 311 321 320 315 309 310 315 315 312 308 305 309 315 319 322 324 325 323 323 322 317 311 309 307 305 303 302 297
266 264 264 269 271 288 27 342 338 337 296 270 283 313 326 325 322 326 329 326 328 332 329 324 316 307 302 193 152 156 163 158 141 134 135 129 126 131 135 166 226 225 236 253 247 247 246 209 191 185 178 175 180 181 184 197 210 219 308 329 328 325 321 314 317 321 319 317 314 312 315 319 319 322 325 326 325 325 321 317 317 319 320 318 313 309 302
268 262 259 265 268 9 4 328 326 320 267 297 315 316 314 316 322 325 324 323 325 324 319 315 309 300 292 211 144 142 142 134 126 125 122 114 115 117 109 122 229 236 253 257 243 245 233 198 186 180 174 175 180 180 183 189 188 206 341 344 335 325 322 320 324 325 322 320 318 318 321 321 320 325 328 326 325 326 323 322 323 326 329 326 319 315 310
267 262 255 267 298 321 321 315 309 290 293 302 306 304 304 310 318 320 318 316 315 312 307 307 305 290 275 248 141 127 125 119 117 117 111 108 112 104 105 198 245 260 263 251 234 238 219 193 185 178 172 176 178 174 176 175 147 46 359 357 350 334 327 326 326 326 324 322 320 321 324 322 324 331 332 327 326 328 328 328 329 329 331 331 326 322 317
268 275 277 286 296 300 299 296 292 294 297 298 296 294 295 301 309 314 313 310 308 308 304 299 297 282 266 243 147 125 125 118 114 115 114 116 119 107 120 260 290 275 265 251 228 220 205 191 186 179 173 175 176 170 166 155 121 73 27 11 357 339 331 328 326 325 325 324 324 324 324 322 328 337 336 329 329 333 334 334 333 332 334 335 333 328 322
277 274 269 272 278 282 284 286 290 295 299 302 301 295 290 298 307 311 312 310 306 306 303 295 286 273 258 229 147 125 128 122 117 118 115 116 120 107 92 41 354 302 264 247 217 202 193 189 186 182 177 172 171 165 151 137 115 83 51 28 3 347 340 333 327 326 325 326 328 328 326 324 332 340 339 332 331 338 342 342 341 340 340 340 338 333 328
276 269 260 266 272 278 285 289 289 292 301 316 324 319 309 310 309 307 311 312 307 305 303 288 267 258 243 198 145 131 132 127 122 120 116 118 117 96 74 58 41 31 249 223 203 193 188 183 183 183 178 170 165 158 143 129 111 83 57 38 14 353 346 338 331 328 327 328 332 332 327 326 333 343 344 338 332 339 348 350 347 345 346 345 342 338 333
258 266 273 279 281 282 286 287 288 300 320 329 329 324 320 318 313 309 313 313 308 308 303 269 225 216 203 157 138 136 135 127 119 115 113 114 110 93 73 57 44 42 62 209 198 193 190 182 180 180 176 167 161 154 142 128 111 88 59 44 31 3 350 344 337 332 329 329 332 332 330 329 333 343 350 347 337 338 350 355 351 348 350 349 345 340 335
264 268 274 280 282 284 287 293 303 319 329 328 322 318 321 323 321 320 321 319 318 317 306 235 168 149 125 107 102 118 127 122 114 110 107 104 103 94 70 45 32 31 24 355 187 185 187 180 176 177 173 164 156 152 143 126 111 95 64 49 37 11 357 352 341 336 334 334 333 330 330 331 332 342 354 356 347 341 347 355 355 351 351 350 344 339 337
267 271 281 291 294 293 293 298 304 309 313 318 319 316 318 323 324 326 328 329 338 2 147 161 145 131 116 107 101 109 121 120 112 105 98 92 89 70 29 14 15 22 20 32 151 158 168 171 170 170 166 157 151 150 143 126 113 101 78 58 40 20 13 8 359 352 343 339 338 333 330 332 331 338 352 360 357 350 347 352 356 356 355 352 345 340 340
275 282 288 294 296 294 294 298 303 307 308 311 312 312 316 321 323 325 327 329 342 126 146 154 142 124 116 112 107 108 120 123 110 97 83 71 62 24 350 354 22 25 29 93 138 143 150 157 159 160 158 153 149 148 142 130 119 110 95 73 50 34 24 16 13 10 355 342 343 339 333 333 334 336 346 355 360 360 354 350 354 360 2 359 351 345 345
278 282 286 291 293 293 296 299 301 304 307 308 309 310 312 316 316 318 324 329 329 156 160 176 165 134 117 110 105 105 116 114 97 82 67 57 49 11 350 44 49 41 67 121 135 139 146 151 154 155 154 152 152 152 147 138 128 121 108 85 64 43 27 14 10 6 355 346 347 345 339 336 337 339 344 350 356 1 1 357 359 5 7 6 1 354 352
277 282 288 295 294 293 297 295 290 292 298 305 310 311 309 309 310 313 322 326 244 180 189 291 173 123 107 104 104 104 106 97 82 76 69 57 42 26 65 112 89 73 101 119 126 137 147 152 154 155 153 153 157 160 159 150 137 131 114 90 77 47 26 16 2 357 356 351 348 348 346 343 340 342 348 351 353 358 1 2 5 11 12 12 12 5 360
278 283 289 294 292 292 296 292 287 292 304 305 306 306 305 304 304 305 317 317 239 199 218 294 92 105 97 100 103 103 100 89 80 77 69 59 60 88 117 123 105 101 115 117 120 141 156 155 155 156 157 158 161 164 166 159 144 139 121 94 83 56 37 29 10 357 358 354 351 352 351 348 343 342 348 353 353 358 3 5 7 11 12 13 18 18 10
280 281 286 291 291 293 299 299 300 309 310 304 302 302 301 301 298 298 311 307 226 187 182 57 101 102 97 102 104 102 96 88 80 71 62 57 69 99 120 117 101 111 123 115 104 114 139 154 161 162 162 167 170 168 167 162 153 148 127 93 82 56 38 33 20 1 358 359 0 360 356 355 352 349 354 357 356 1 9 11 12 16 17 16 20 23 19
279 274 273 275 281 293 301 303 305 308 305 300 300 298 298 299 293 288 298 283 204 174 155 105 114 108 103 108 108 102 95 87 76 66 59 57 68 93 114 115 103 113 129 126 108 90 87 138 169 171 170 175 177 173 172 172 167 165 148 101 93 69 29 24 17 0 358 4 6 5 7 10 5 356 357 360 356 2 12 16 17 21 23 23 25 28 27
273 268 268 269 275 288 296 298 301 303 301 300 299 296 295 296 289 280 282 253 196 178 168 142 129 118 114 115 112 104 97 89 78 69 65 64 70 81 99 116 119 124 139 147 139 105 58 70 150 171 180 184 182 180 185 188 182 177 175 153 128 135 26 17 11 359 357 2 5 8 13 15 9 359 358 358 355 1 11 17 21 24 26 27 29 32 36
285 277 279 281 282 287 291 294 299 303 305 305 304 300 296 292 279 270 268 222 178 170 161 137 126 119 119 119 113 105 100 95 88 80 71 67 69 72 79 98 116 128 143 153 158 151 85 61 72 147 188 193 191 187 189 193 192 187 187 186 178 160 36 17 8 359 350 349 358 6 9 8 6 6 5 1 356 0 9 16 22 26 28 31 35 38 41
315 303 289 287 288 292 297 301 305 309 311 310 307 305 302 291 272 259 241 184 158 152 144 133 127 126 128 126 118 109 104 98 92 85 75 66 64 65 67 73 82 96 120 142 151 143 112 80 59 68 176 196 198 196 196 198 200 202 206 213 222 245 346 4 1 357 348 342 348 359 2 0 2 8 9 6 3 3 6 14 21 26 29 34 39 42 45
305 299 294 300 309 313 318 325 327 323 319 317 315 314 309 291 276 250 189 155 146 143 136 129 129 133 136 133 123 113 107 99 90 84 79 74 69 67 67 71 75 83 101 124 132 123 116 109 74 76 99 180 201 206 212 215 213 212 220 237 248 259 287 319 329 331 334 337 339 345 355 360 1 4 10 15 15 10 6 10 19 26 31 36 39 44 48
329 339 346 354 354 348 344 343 337 329 325 325 327 329 325 293 279 197 153 142 140 143 138 128 126 133 137 136 126 115 107 101 94 88 84 83 82 81 79 79 82 86 90 95 99 105 111 109 103 125 135 154 195 211 226 235 226 219 226 249 268 268 271 284 305 310 312 320 323 329 348 4 7 5 9 16 19 14 11 12 15 22 31 39 42 45 50
48 52 50 44 36 24 9 354 344 339 339 341 347 6 72 121 132 137 137 133 133 137 133 124 121 127 132 133 125 112 103 100 99 96 93 89 88 89 87 85 83 83 83 81 78 79 82 81 83 104 136 158 187 212 239 253 233 221 233 255 265 265 261 253 280 305 303 303 307 317 340 1 9 11 15 19 20 18 17 17 17 18 27 38 45 49 51
67 69 69 67 61 55 41 23 11 7 7 11 34 67 93 113 125 130 129 125 125 125 120 113 112 115 119 121 116 107 102 101 100 99 98 96 93 93 91 87 83 79 76 74 71 68 68 70 71 77 86 90 103 130 246 255 229 227 246 256 251 246 239 221 238 291 296 295 301 308 321 347 6 17 23 23 21 20 19 19 21 21 23 32 44 51 54
78 78 78 74 68 64 60 53 51 51 47 45 63 90 103 111 117 121 122 120 117 112 109 109 109 107 107 109 107 104 103 101 98 97 98 96 94 93 89 86 83 79 74 70 68 66 65 65 66 70 74 75 75 74 69 68 102 159 243 256 243 234 232 236 258 279 280 266 251 270 287 1 18 23 27 25 19 19 22 23 24 26 26 29 39 50 55
85 84 83 81 74 69 65 61 61 65 66 67 78 98 110 114 117 120 123 121 116 109 110 112 111 106 103 103 102 101 101 100 97 95 95 94 92 90 86 82 80 77 73 69 66 66 66 65 63 63 66 65 63 64 64 65 69 70 61 37 332 268 266 269 270 265 247 157 153 170 161 80 33 23 25 27 23 21 23 24 25 28 30 32 37 44 52
90 87 86 83 77 70 65 61 61 66 70 74 80 90 101 112 120 123 122 118 115 111 108 107 107 106 104 103 100 98 99 99 97 95 94 92 89 85 82 78 75 73 71 68 65 64 66 64 58 55 56 56 53 51 51 54 60 60 52 37 30 27 3 316 284 266 254 198 156 154 135 96 65 32 28 30 28 26 29 32 33 33 34 33 36 41 46
89 86 83 81 78 73 68 64 60 61 65 71 76 83 91 104 114 116 114 113 115 115 109 104 103 104 105 104 102 98 97 97 97 95 92 88 85 82 79 76 73 72 71 68 62 60 62 62 55 49 49 49 48 47 49 52 54 53 47 41 39 36 33 34 32 356 308 254 177 161 140 116 100 74 49 39 34 32 33 35 36 36 35 35 36 39 42
85 82 80 79 78 75 72 70 66 64 65 69 74 81 89 99 106 107 106 109 115 117 115 113 110 108 108 111 109 105 101 99 96 94 90 86 83 80 77 74 71 68 68 66 60 55 56 57 54 50 47 45 45 48 49 48 46 45 44 44 43 39 38 44 46 34 17 44 124 140 136 119 100 85 69 52 42 37 32 30 32 33 33 34 37 38 39
84 82 79 78 77 75 74 75 74 72 70 71 74 80 89 99 104 104 105 109 111 111 113 115 114 110 109 112 112 112 111 109 105 100 95 87 81 76 72 69 66 63 61 60 56 51 49 49 49 49 47 44 45 49 49 42 38 40 43 44 45 44 41 42 44 43 46 61 109 143 140 124 102 89 81 67 53 47 39 34 36 38 35 35 38 38 38
85 82 80 79 79 77 76 76 76 73 72 71 72 75 81 87 93 97 102 110 117 116 113 114 115 112 108 106 106 106 107 109 110 107 100 92 86 79 72 65 60 56 54 52 48 43 42 42 41 41 41 39 41 46 46 38 32 35 39 42 46 49 49 47 46 47 49 56 100 146 145 131 113 102 92 72 55 52 48 42 42 43 42 40 41 41 39
84 83 81 80 79 78 76 75 73 71 69 68 68 70 72 73 77 83 89 98 112 119 119 118 120 119 114 108 102 94 88 90 97 98 94 90 88 83 76 69 59 49 44 42 38 34 34 35 35 34 32 30 31 38 40 35 30 32 35 38 44 48 51 52 54 56 56 58 75 132 150 141 131 128 122 88 51 48 54 48 44 45 45 42 42 43 46
84 83 82 81 81 81 79 76 73 71 71 70 69 69 70 70 72 75 79 85 94 104 108 109 111 114 114 112 106 96 84 80 83 84 81 78 76 73 69 63 53 40 30 26 24 22 23 25 28 29 26 23 25 31 34 33 33 37 39 41 43 45 47 50 53 55 56 57 63 90 141 150 146 146 151 152 143 129 126 101 69 64 61 50 43 43 45
84 83 83 84 85 84 84 81 78 75 74 73 71 71 71 73 75 77 79 83 88 91 93 96 99 100 98 94 89 82 78 79 84 83 75 67 60 54 47 39 32 24 14 9 8 9 12 16 20 21 21 20 21 24 26 30 36 43 48 49 49 46 44 46 49 50 51 55 59 68 96 139 158 165 171 179 185 173 163 168 166 147 133 114 80 63 54
84 83 83 84 86 87 88 87 84 80 75 72 69 67 65 66 68 69 71 73 77 79 81 83 85 85 82 78 71 62 57 55 54 56 59 54 40 23 12 9 5 357 352 351 352 355 360 5 9 13 15 16 16 16 18 24 33 42 47 49 51 50 48 46 47 47 47 49 54 58 67 86 121 160 192 220 244 254 221 209 210 194 179 175 162 142 130
85 85 85 87 90 91 90 87 84 81 76 72 70 66 62 59 58 57 56 55 56 57 59 61 61 59 58 61 64 65 62 50 35 26 30 35 17 351 338 336 338 337 337 339 342 345 348 351 356 1 6 9 9 9 10 17 29 40 44 45 46 50 52 50 49 47 44 44 47 50 53 60 68 73 77 68 330 316 287 266 265 244 192 181 181 183 186
86 86 88 91 93 93 89 84 80 77 76 75 74 71 66 61 59 56 52 49 46 43 39 37 36 33 31 31 31 33 41 47 37 16 360 353 345 331 322 321 323 328 331 331 331 333 335 337 341 348 354 357 359 1 4 10 21 35 42 41 41 44 48 49 50 48 44 43 44 44 44 48 52 54 53 51 43 35 28 4 327 300 231 196 189 188 191
91 90 92 96 97 93 88 83 78 76 75 74 72 69 65 60 57 54 50 46 43 40 35 29 25 22 18 15 12 9 8 11 14 8 355 342 330 322 318 317 318 319 321 320 320 321 324 327 331 336 341 345 347 351 357 4 13 25 31 31 30 32 34 36 40 42 40 39 40 38 34 35 37 37 37 38 36 33 31 28 21 13 358 218 196 190 191
97 96 96 98 97 92 86 81 80 79 77 71 66 60 55 49 46 44 41 37 35 33 29 24 20 18 16 13 7 360 353 344 334 329 328 326 323 321 320 319 318 319 320 321 320 320 321 323 324 326 330 333 332 333 342 354 8 22 23 18 15 17 20 22 25 29 30 30 30 28 24 23 23 22 23 27 29 28 26 24 21 19 18 15 123 183 189
99 101 105 108 106 98 90 87 87 84 76 66 57 48 41 39 38 32 24 20 21 22 20 14 5 1 4 12 13 4 356 349 340 329 320 320 326 329 326 325 327 332 335 336 336 332 328 327 327 326 326 326 323 318 319 324 338 6 13 9 6 8 12 16 19 19 19 19 18 16 14 15 15 12 11 16 21 26 30 28 16 4 1 5 15 59 135
107 112 117 118 112 102 95 97 96 87 73 61 49 37 30 31 31 19 6 3 8 14 14 11 4 354 348 350 0 8 7 6 6 359 347 341 345 348 343 342 350 360 1 0 3 1 344 334 335 337 332 328 318 253 233 226 205 48 54 83 8 5 5 8 13 15 13 13 13 9 7 8 11 10 10 12 13 18 27 32 30 23 13 357 333 324 328